Regional Weather Roundup
Issued by NWS

Home | Current Version | Previous Version | Graphics & Text | Print | Product List | Glossary On
Versions: 1 2 3 4 5 6 7 8 9 10 11 12 13 14 15 16 17 18 19 20 21 22 23 24 25 26 27 28 29 30 31 32 33 34 35 36 37 38 39 40 41 42 43 44 45 46 47 48 49 50
000
ASUS43 KLMK 311810
RWRKY
KENTUCKY REGIONAL WEATHER ROUNDUP
NATIONAL WEATHER SERVICE LOUISVILLE KY
200 PM EDT FRI JUL 31 2015

NOTE "FAIR" INDICATES FEW OR NO CLOUDS BELOW 12,000 FEET
WITH NO SIGNIFICANT WEATHER AND/OR OBSTRUCTIONS TO VISIBILITY.

KYZ001>023-026-027-061>063-070>075-311900-
WESTERN AND SOUTH CENTRAL KENTUCKY

CITY           SKY/WX    TMP DP  RH WIND       PRES   REMARKS
PADUCAH        SUNNY     88  68  51 N7        30.09F HX  91
HENDERSON      SUNNY     86  70  58 N3        30.06F HX  90
OWENSBORO      MOSUNNY   87  65  47 N7        30.08F
HOPKINSVILLE   SUNNY     86  68  55 NE8       30.08F
BOWLING GREEN  MOSUNNY   89  61  38 NE9       30.08F
GLASGOW        SUNNY    N/A N/A N/A E3        30.08S
$$

KYZ024-025-028>034-038-045-046-053-311900-
NORTH CENTRAL KENTUCKY

CITY           SKY/WX    TMP DP  RH WIND       PRES   REMARKS
LOUISVILLE/SDF MOSUNNY   88  60  38 NW7       30.04F
LOUISVILLE/LOU SUNNY     90  57  32 VRB6      30.05F
FORT KNOX      SUNNY     86  64  47 N7        30.05F
$$

KYZ035>037-039>044-047>052-055>060-089>105-311900-
NORTHEAST KENTUCKY

CITY           SKY/WX    TMP DP  RH WIND       PRES   REMARKS
LEXINGTON      MOSUNNY   83  62  49 W7G16     30.07F
COVINGTON      MOSUNNY   85  59  41 W6        30.04
FRANKFORT      MOSUNNY   85  58  39 W6        30.05F
$$

KYZ054-064>069-076>088-106>120-311900-
SOUTHEAST KENTUCKY

CITY           SKY/WX    TMP DP  RH WIND       PRES   REMARKS
JACKSON        MOSUNNY   82  58  43 CALM      30.09F
LONDON         MOSUNNY   84  54  35 NE9       30.08F
SOMERSET       SUNNY     82  52  34 NW3       30.09F
MIDDLESBORO    MOSUNNY   82  59  45 NW6       30.09S
MONTICELLO     CLEAR     85  62  45 CALM      30.11F
$$




USA.gov is the U.S. government's official web portal to all federal, state and local government web resources and services.